Horntown, VA

7:38 PM EDT on August 30, 2016 (GMT -0400)
Wallops Flight Facility

Weather History for KWAL - March, 2014

Change the Weather History Date:

Sunday, March 30, 2014

  Actual Average Record
Temperature  
Mean Temperature 47 °F 49 °F  
Max Temperature 54 °F 58 °F 81 °F (1998)
Min Temperature 40 °F 40 °F 30 °F (1983)
Degree Days  
Heating Degree Days 18    
Month to date heating degree days 656  
Since 1 July heating degree days 3649  
Cooling Degree Days 0    
Month to date cooling degree days 0  
Year to date cooling degree days 0  
Moisture  
Dew Point 45 °F    
Average Humidity 88    
Maximum Humidity 100    
Minimum Humidity 76    
Precipitation  
Precipitation 0.03 in 0.13 in 0.70 in (2003)
Month to date precipitation 3.15 3.87  
Year to date precipitation 8.72 9.67  
Sea Level Pressure  
Sea Level Pressure 29.53 in    
Wind  
Wind Speed 14 mph (WNW)    
Max Wind Speed 25 mph    
Max Gust Speed 36 mph    
Visibility 5 miles    
Events Fog , Rain    
T = Trace of Precipitation, MM = Missing Value Source: NWS Daily Summary

Daily Weather History Graph

Daily Weather History Graph

Search for Another Location

Airport or City:

Trip Planner

Search our weather history database for the weather conditions in past years. The results will help you decide how hot, cold, wet, or windy it might be!

Date:

Astronomy

Mar. 30, 2014 Rise Set
Actual Time 6:50 AM EDT 7:23 PM EDT
Civil Twilight 6:23 AM EDT 7:49 PM EDT
Nautical Twilight 5:52 AM EDT 8:20 PM EDT
Astronomical Twilight 5:20 AM EDT 8:52 PM EDT
Moon 6:34 AM EDT 7:32 PM EDT
Length of Visible Light 13h 25m
Length of Day
12h 32m
Waning Crescent, 0% of the Moon is Illuminated
Mar 30
Waning Crescent
Mar 30
New
Apr 7
First Quarter
Apr 15
Full
Apr 22
Last Quarter

Hourly Weather History & Observations

Time (EDT) Temp. Windchill Dew Point Humidity Pressure Visibility Wind Dir Wind Speed Gust Speed Precip Events Conditions
12:54 AM 52.0 °F - 51.1 °F 97% 29.57 in 0.5 mi SSW 8.1 mph - 0.00 in Fog , Rain Light Rain
1:54 AM 53.1 °F - 52.0 °F 96% 29.53 in 0.5 mi SSW 9.2 mph - 0.00 in Fog Fog
2:54 AM 53.1 °F - 51.1 °F 93% 29.50 in 0.2 mi SSW 6.9 mph - N/A Fog Fog
3:54 AM 53.1 °F - 51.1 °F 93% 29.47 in 0.2 mi SSW 10.4 mph - N/A Fog Fog
4:54 AM 52.0 °F - 50.0 °F 93% 29.45 in 0.2 mi SSW 9.2 mph - N/A Fog Fog
5:30 AM 52.0 °F - 51.1 °F 97% 29.46 in 1.0 mi SW 6.9 mph - N/A   Overcast
5:35 AM 52.0 °F - 51.1 °F 97% 29.46 in 2.0 mi SW 5.8 mph - N/A   Overcast
5:51 AM 51.8 °F - 51.8 °F 100% 29.45 in 2.5 mi WNW 3.5 mph - N/A   Mostly Cloudy
5:54 AM 53.1 °F - 51.1 °F 93% 29.44 in 4.0 mi West 3.5 mph - N/A   Mostly Cloudy
6:01 AM 53.1 °F - 52.0 °F 96% 29.45 in 10.0 mi Calm Calm - N/A   Scattered Clouds
6:11 AM 51.1 °F - 50.0 °F 96% 29.45 in 2.5 mi Calm Calm - N/A   Mostly Cloudy
6:13 AM 51.1 °F - 50.0 °F 96% 29.45 in 1.8 mi Calm Calm - N/A   Mostly Cloudy
6:26 AM 51.1 °F - 50.0 °F 96% 29.45 in 2.0 mi South 4.6 mph - N/A   Mostly Cloudy
6:30 AM 51.1 °F - 50.0 °F 96% 29.45 in 3.0 mi Calm Calm - N/A   Overcast
6:39 AM 51.1 °F - 50.0 °F 96% 29.45 in 5.0 mi Calm Calm - N/A   Overcast
6:54 AM 51.1 °F - 48.9 °F 92% 29.45 in 6.0 mi South 5.8 mph - N/A   Overcast
7:16 AM 50.0 °F - 48.0 °F 93% 29.46 in 6.0 mi South 5.8 mph - N/A   Overcast
7:54 AM 48.9 °F - 48.0 °F 97% 29.45 in 2.5 mi West 4.6 mph - N/A   Overcast
8:04 AM 51.1 °F - 50.0 °F 96% 29.46 in 1.8 mi Calm Calm - N/A   Overcast
8:10 AM 51.1 °F - 50.0 °F 96% 29.46 in 0.8 mi West 4.6 mph - N/A   Overcast
8:23 AM 52.0 °F - 51.1 °F 97% 29.45 in 1.2 mi NW 15.0 mph - N/A   Overcast
8:48 AM 51.8 °F - 50.0 °F 94% 29.46 in 2.5 mi NW 15.0 mph - N/A   Overcast
8:54 AM 51.1 °F - 50.0 °F 96% 29.45 in 3.0 mi NW 13.8 mph - N/A   Overcast
9:38 AM 51.1 °F - 48.9 °F 92% 29.46 in 9.0 mi NNW 18.4 mph 25.3 mph 0.00 in   Overcast
9:54 AM 50.0 °F - 48.9 °F 96% 29.46 in 10.0 mi NNW 16.1 mph 24.2 mph 0.00 in Rain Light Rain
10:49 AM 51.8 °F - 48.2 °F 88% 29.48 in 10.0 mi NW 13.8 mph 23.0 mph 0.00 in   Overcast
10:54 AM 51.1 °F - 48.0 °F 89% 29.47 in 10.0 mi NW 12.7 mph 23.0 mph 0.00 in   Overcast
11:21 AM 48.9 °F - 46.0 °F 90% 29.49 in 9.0 mi WNW 17.3 mph 25.3 mph N/A   Overcast
11:36 AM 48.0 °F - 45.0 °F 89% 29.49 in 2.0 mi NW 17.3 mph 25.3 mph 0.00 in Rain Light Rain
11:54 AM 46.9 °F - 45.0 °F 93% 29.49 in 2.0 mi NW 17.3 mph 26.5 mph 0.00 in Rain Light Rain
12:01 PM 46.9 °F - 44.1 °F 90% 29.50 in 3.0 mi NW 18.4 mph 26.5 mph 0.00 in   Overcast
12:22 PM 48.0 °F - 44.1 °F 86% 29.50 in 9.0 mi NW 19.6 mph 28.8 mph 0.00 in   Overcast
12:54 PM 48.0 °F - 43.0 °F 83% 29.49 in 10.0 mi NW 23.0 mph 29.9 mph 0.00 in   Overcast
1:54 PM 46.0 °F 38.8 °F 41.0 °F 83% 29.52 in 10.0 mi NW 18.4 mph 28.8 mph 0.00 in   Overcast
2:38 PM 45.0 °F 37.4 °F 39.0 °F 80% 29.53 in 10.0 mi NW 18.4 mph 32.2 mph N/A   Overcast
2:54 PM 45.0 °F 37.1 °F 39.0 °F 80% 29.54 in 10.0 mi NW 19.6 mph 27.6 mph N/A   Overcast
3:54 PM 44.1 °F 36.5 °F 37.9 °F 79% 29.56 in 10.0 mi NW 17.3 mph 24.2 mph 0.00 in   Overcast
4:35 PM 43.0 °F 36.0 °F 39.9 °F 89% 29.57 in 3.0 mi NW 13.8 mph 23.0 mph 0.00 in Rain Light Rain
4:41 PM 43.0 °F 35.7 °F 39.9 °F 89% 29.57 in 2.0 mi NW 15.0 mph 23.0 mph 0.00 in Rain Light Rain
4:48 PM 42.8 °F 35.8 °F 39.2 °F 87% 29.58 in 3.0 mi NW 13.8 mph 26.5 mph 0.01 in Rain Light Rain
4:49 PM 43.0 °F 36.0 °F 39.9 °F 89% 29.57 in 3.0 mi NW 13.8 mph 26.5 mph 0.01 in Rain Light Rain
5:11 PM 42.1 °F 34.2 °F 39.0 °F 89% 29.59 in 2.5 mi NW 16.1 mph 25.3 mph 0.00 in Rain Light Rain
5:37 PM 42.1 °F 34.2 °F 39.0 °F 89% 29.60 in 3.0 mi NW 16.1 mph 24.2 mph 0.01 in Rain Light Rain
5:54 PM 42.1 °F 33.9 °F 39.0 °F 89% 29.60 in 3.0 mi NW 17.3 mph 25.3 mph 0.01 in Rain Light Rain
6:32 PM 41.0 °F 32.5 °F 37.9 °F 89% 29.62 in 5.0 mi NW 17.3 mph 26.5 mph 0.01 in   Overcast
6:54 PM 41.0 °F 32.8 °F 37.0 °F 86% 29.62 in 6.0 mi NNW 16.1 mph 26.5 mph 0.01 in   Overcast
7:07 PM 41.0 °F 32.5 °F 36.0 °F 82% 29.63 in 10.0 mi NNW 17.3 mph 32.2 mph N/A   Overcast
7:19 PM 39.9 °F 30.8 °F 36.0 °F 86% 29.64 in 10.0 mi NW 18.4 mph 27.6 mph N/A   Overcast
7:54 PM 39.9 °F 31.1 °F 36.0 °F 86% 29.65 in 10.0 mi NNW 17.3 mph 25.3 mph N/A   Overcast
8:54 PM 39.9 °F 31.4 °F 36.0 °F 86% 29.67 in 10.0 mi NNW 16.1 mph 31.1 mph N/A   Overcast
9:33 PM 39.9 °F 31.1 °F 36.0 °F 86% 29.69 in 10.0 mi NNW 17.3 mph 25.3 mph N/A   Overcast
9:54 PM 39.9 °F 31.4 °F 35.1 °F 83% 29.68 in 10.0 mi North 16.1 mph 28.8 mph N/A   Overcast
10:54 PM 39.9 °F 30.0 °F 35.1 °F 83% 29.70 in 10.0 mi NNW 21.9 mph 31.1 mph N/A   Overcast
11:54 PM 39.9 °F 30.2 °F 35.1 °F 83% 29.73 in 10.0 mi North 20.7 mph 32.2 mph N/A   Overcast